Jerome, ID

9:48 PM MDT on July 23, 2017 (GMT -0600)
Jerome County

Weather History for KJER - January, 2014

Change the Weather History Date:

Tuesday, January 7, 2014

  Actual Average Record
Temperature  
Mean Temperature 28 °F 26 °F  
Max Temperature 34 °F 33 °F 57 °F (1956)
Min Temperature 22 °F 19 °F -14 °F (1982)
Degree Days  
Heating Degree Days 37 39  
Month to date heating degree days 259 273  
Since 1 July heating degree days 3043 3003  
Cooling Degree Days 0 0  
Month to date cooling degree days 0 0  
Year to date cooling degree days 0 0  
Moisture  
Dew Point 13 °F    
Average Humidity 52    
Maximum Humidity 63    
Minimum Humidity 41    
Precipitation  
Precipitation 0.00 in 0.05 in 0.34 in (1946)
Month to date precipitation 0.00 0.38  
Year to date precipitation 0.00 0.38  
Sea Level Pressure  
Sea Level Pressure 30.23 in    
Wind  
Wind Speed 8 mph (NE)    
Max Wind Speed 24 mph    
Max Gust Speed 29 mph    
Visibility 10 miles    
Events      
T = Trace of Precipitation, MM = Missing Value Source: NWS Daily Summary

Daily Weather History Graph

Daily Weather History Graph

Search for Another Location

Airport or City:

Trip Planner

Search our weather history database for the weather conditions in past years. The results will help you decide how hot, cold, wet, or windy it might be!

Date:

Astronomy

Jan. 07, 2014 Rise Set
Actual Time 8:08 AM MST 5:20 PM MST
Civil Twilight 7:36 AM MST 5:52 PM MST
Nautical Twilight 7:00 AM MST 6:27 PM MST
Astronomical Twilight 6:26 AM MST 7:01 PM MST
Moon 11:48 AM MST (1/7) 12:07 AM MST (1/7)
Length of Visible Light 10h 16m
Length of Day
9h 12m
Waxing Crescent, 46% of the Moon is Illuminated
Jan 7
Waxing Crescent
Jan 7
First Quarter
Jan 15
Full
Jan 23
Last Quarter
Jan 30
New

Hourly Weather History & Observations

Time (MST) Temp. Windchill Dew Point Humidity Pressure Visibility Wind Dir Wind Speed Gust Speed Precip Events Conditions
12:53 AM 24.1 °F 10.1 °F 9.0 °F 53% 30.27 in 10.0 mi NE 18.4 mph 28.8 mph N/A   Clear
1:53 AM 23.0 °F 9.2 °F 9.0 °F 55% 30.26 in 10.0 mi NE 17.3 mph - N/A   Clear
2:53 AM 21.9 °F 7.8 °F 9.0 °F 58% 30.27 in 10.0 mi NE 17.3 mph - N/A   Mostly Cloudy
3:53 AM 23.0 °F 9.6 °F 9.0 °F 55% 30.27 in 10.0 mi NE 16.1 mph - N/A   Mostly Cloudy
4:53 AM 23.0 °F 10.1 °F 9.0 °F 55% 30.26 in 10.0 mi NE 15.0 mph - N/A   Scattered Clouds
5:53 AM 23.0 °F 12.4 °F 10.0 °F 58% 30.26 in 10.0 mi NNE 10.4 mph - N/A   Overcast
6:53 AM 23.0 °F 12.4 °F 10.0 °F 58% 30.24 in 10.0 mi NE 10.4 mph - N/A   Overcast
7:53 AM 21.9 °F 13.4 °F 10.0 °F 60% 30.26 in 10.0 mi NE 6.9 mph - N/A   Overcast
8:53 AM 21.9 °F 14.5 °F 10.9 °F 63% 30.28 in 10.0 mi NNE 5.8 mph - N/A   Scattered Clouds
9:53 AM 28.0 °F - 10.0 °F 47% 30.28 in 10.0 mi Calm Calm - N/A   Overcast
10:53 AM 27.0 °F 21.6 °F 12.0 °F 53% 30.28 in 10.0 mi ENE 4.6 mph - N/A   Partly Cloudy
11:53 AM 30.9 °F 26.2 °F 12.0 °F 46% 30.25 in 10.0 mi East 4.6 mph - N/A   Overcast
12:53 PM 33.1 °F 30.0 °F 12.9 °F 43% 30.21 in 10.0 mi NNE 3.5 mph - N/A   Overcast
1:53 PM 33.1 °F 28.7 °F 14.0 °F 46% 30.20 in 10.0 mi SSE 4.6 mph - N/A   Overcast
2:53 PM 34.0 °F 31.0 °F 14.0 °F 44% 30.21 in 10.0 mi WNW 3.5 mph - N/A   Overcast
3:53 PM 34.0 °F - 12.9 °F 42% 30.20 in 10.0 mi Calm Calm - N/A   Overcast
4:53 PM 34.0 °F 31.0 °F 14.0 °F 44% 30.20 in 10.0 mi South 3.5 mph - N/A   Overcast
5:53 PM 32.0 °F - 17.1 °F 54% 30.20 in 10.0 mi Calm Calm - N/A   Overcast
6:53 PM 30.9 °F 27.5 °F 18.0 °F 59% 30.21 in 10.0 mi ESE 3.5 mph - N/A   Overcast
7:53 PM 30.9 °F 26.2 °F 18.0 °F 59% 30.19 in 10.0 mi NE 4.6 mph - N/A   Overcast
8:53 PM 30.9 °F 22.8 °F 18.0 °F 59% 30.18 in 10.0 mi NE 9.2 mph - N/A   Overcast
9:53 PM 33.1 °F 26.1 °F 17.1 °F 52% 30.15 in 10.0 mi ENE 8.1 mph - N/A   Overcast
10:53 PM 30.9 °F 21.7 °F 19.0 °F 61% 30.16 in 10.0 mi NE 11.5 mph - N/A   Overcast
11:53 PM 30.9 °F 20.2 °F 18.0 °F 59% 30.14 in 10.0 mi NNE 15.0 mph - N/A   Overcast